Time,TemperatureF,DewpointF,PressureIn,WindDirection,WindDirectionDegrees,WindSpeedMPH,WindSpeedGustMPH,Humidity,HourlyPrecipIn,Conditions,Clouds,dailyrainin,SoftwareType,DateUTC
2013-01-22 00:02:00,39.4,18.1,30.03,SW,225,0.0,-999.0,42,0.00,Rainy,,0.00,Open2300\PHP-WU,2013-01-22 05:02:00,
2013-01-22 00:08:00,38.8,17.6,30.02,SW,225,0.0,-999.0,42,0.00,Rainy,,0.00,Open2300\PHP-WU,2013-01-22 05:08:00,
2013-01-22 00:15:00,38.5,17.8,30.03,SW,225,0.0,-999.0,43,0.00,Rainy,,0.00,Open2300\PHP-WU,2013-01-22 05:15:00,
2013-01-22 00:21:00,38.1,17.5,30.03,West,270,0.0,-999.0,43,0.00,Rainy,,0.00,Open2300\PHP-WU,2013-01-22 05:21:00,
2013-01-22 00:27:00,37.9,17.8,30.03,West,270,0.0,-999.0,44,0.00,Rainy,,0.00,Open2300\PHP-WU,2013-01-22 05:27:00,
2013-01-22 00:33:00,37.9,17.8,30.03,West,270,0.0,-999.0,44,0.00,Rainy,,0.00,Open2300\PHP-WU,2013-01-22 05:33:00,
2013-01-22 00:39:00,37.8,17.7,30.04,West,270,0.0,-999.0,44,0.00,Rainy,,0.00,Open2300\PHP-WU,2013-01-22 05:39:00,
2013-01-22 00:45:00,37.6,17.5,30.04,SSW,202,0.0,-999.0,44,0.00,Rainy,,0.00,Open2300\PHP-WU,2013-01-22 05:45:00,
2013-01-22 00:51:00,37.6,17.5,30.04,WSW,247,0.0,-999.0,44,0.00,Rainy,,0.00,Open2300\PHP-WU,2013-01-22 05:51:00,
2013-01-22 00:57:00,37.4,17.3,30.04,WSW,247,0.0,-999.0,44,0.00,Rainy,,0.00,Open2300\PHP-WU,2013-01-22 05:57:00,
2013-01-22 01:03:00,37.2,17.2,30.04,WSW,247,0.0,-999.0,44,0.00,Rainy,,0.00,Open2300\PHP-WU,2013-01-22 06:03:00,
2013-01-22 01:09:00,37.0,17.5,30.04,SW,225,0.0,-999.0,45,0.00,Rainy,,0.00,Open2300\PHP-WU,2013-01-22 06:09:00,
2013-01-22 01:15:00,36.9,17.4,30.04,SSW,202,0.0,-999.0,45,0.00,Rainy,,0.00,Open2300\PHP-WU,2013-01-22 06:15:00,
2013-01-22 01:21:00,36.7,17.2,30.04,SSW,202,0.0,-999.0,45,0.00,Rainy,,0.00,Open2300\PHP-WU,2013-01-22 06:21:00,
2013-01-22 01:27:00,36.5,17.1,30.04,SSW,202,0.0,-999.0,45,0.00,Rainy,,0.00,Open2300\PHP-WU,2013-01-22 06:27:00,
2013-01-22 01:33:00,36.7,17.2,30.04,SW,225,0.0,-999.0,45,0.00,Rainy,,0.00,Open2300\PHP-WU,2013-01-22 06:33:00,
2013-01-22 01:39:00,36.7,17.2,30.05,SE,135,0.0,-999.0,45,0.00,Rainy,,0.00,Open2300\PHP-WU,2013-01-22 06:39:00,
2013-01-22 01:45:00,36.7,17.2,30.05,SSW,202,0.0,-999.0,45,0.00,Rainy,,0.00,Open2300\PHP-WU,2013-01-22 06:45:00,
2013-01-22 01:51:00,36.3,16.9,30.05,SSW,202,0.0,-999.0,45,0.00,Rainy,,0.00,Open2300\PHP-WU,2013-01-22 06:51:00,
2013-01-22 01:57:00,36.1,17.3,30.05,SE,135,0.0,-999.0,46,0.00,Rainy,,0.00,Open2300\PHP-WU,2013-01-22 06:57:00,
2013-01-22 02:03:00,36.1,16.7,30.05,NE,45,0.0,-999.0,45,0.00,Rainy,,0.00,Open2300\PHP-WU,2013-01-22 07:03:00,
2013-01-22 02:09:00,36.5,17.1,30.06,North,0,0.0,-999.0,45,0.00,Rainy,,0.00,Open2300\PHP-WU,2013-01-22 07:09:00,
2013-01-22 02:15:00,36.7,16.7,30.06,NNE,22,0.0,-999.0,44,0.00,Rainy,,0.00,Open2300\PHP-WU,2013-01-22 07:15:00,
2013-01-22 02:21:00,36.7,16.7,30.06,NNE,22,0.0,-999.0,44,0.00,Rainy,,0.00,Open2300\PHP-WU,2013-01-22 07:21:00,
2013-01-22 02:27:00,36.5,16.5,30.07,SSE,157,0.0,-999.0,44,0.00,Cloudy,,0.00,Open2300\PHP-WU,2013-01-22 07:27:00,
2013-01-22 02:33:00,36.3,16.4,30.08,East,90,0.0,-999.0,44,0.00,Cloudy,,0.00,Open2300\PHP-WU,2013-01-22 07:33:00,
2013-01-22 02:39:00,36.0,16.6,30.08,SW,225,0.0,-999.0,45,0.00,Cloudy,,0.00,Open2300\PHP-WU,2013-01-22 07:39:00,
2013-01-22 02:45:00,35.8,16.4,30.08,NE,45,1.6,-999.0,45,0.00,Cloudy,,0.00,Open2300\PHP-WU,2013-01-22 07:45:00,
2013-01-22 02:51:00,35.6,15.7,30.08,NE,45,0.0,-999.0,44,0.00,Cloudy,,0.00,Open2300\PHP-WU,2013-01-22 07:51:00,
2013-01-22 02:57:00,35.4,15.5,30.08,WNW,292,0.0,-999.0,44,0.00,Cloudy,,0.00,Open2300\PHP-WU,2013-01-22 07:57:00,
2013-01-22 03:03:00,35.2,15.4,30.08,WSW,247,0.0,-999.0,44,0.00,Cloudy,,0.00,Open2300\PHP-WU,2013-01-22 08:03:00,
2013-01-22 03:09:00,34.9,15.6,30.09,SE,135,0.0,-999.0,45,0.00,Cloudy,,0.00,Open2300\PHP-WU,2013-01-22 08:09:00,
2013-01-22 03:15:00,34.9,15.6,30.09,SW,225,0.0,-999.0,45,0.00,Cloudy,,0.00,Open2300\PHP-WU,2013-01-22 08:15:00,
2013-01-22 03:21:00,34.7,14.9,30.09,NNE,22,0.0,-999.0,44,0.00,Cloudy,,0.00,Open2300\PHP-WU,2013-01-22 08:21:00,
2013-01-22 03:27:00,34.5,15.2,30.09,NNE,22,0.0,-999.0,45,0.00,Cloudy,,0.00,Open2300\PHP-WU,2013-01-22 08:27:00,
2013-01-22 03:33:00,34.3,15.0,30.09,North,0,0.0,-999.0,45,0.00,Cloudy,,0.00,Open2300\PHP-WU,2013-01-22 08:33:00,
2013-01-22 03:38:00,34.2,14.9,30.09,NNE,22,0.0,-999.0,45,0.00,Cloudy,,0.00,Open2300\PHP-WU,2013-01-22 08:38:00,
2013-01-22 03:45:00,34.0,14.7,30.09,SSW,202,0.0,-999.0,45,0.00,Cloudy,,0.00,Open2300\PHP-WU,2013-01-22 08:45:00,
2013-01-22 03:51:00,33.8,14.5,30.09,North,0,0.0,-999.0,45,0.00,Cloudy,,0.00,Open2300\PHP-WU,2013-01-22 08:51:00,
2013-01-22 03:57:00,33.8,14.5,30.10,North,0,0.0,-999.0,45,0.00,Cloudy,,0.00,Open2300\PHP-WU,2013-01-22 08:57:00,
2013-01-22 04:02:00,33.8,14.0,30.10,North,0,0.0,-999.0,44,0.00,Cloudy,,0.00,Open2300\PHP-WU,2013-01-22 09:02:00,
2013-01-22 04:08:00,33.6,13.9,30.10,NNE,22,0.0,-999.0,44,0.00,Cloudy,,0.00,Open2300\PHP-WU,2013-01-22 09:08:00,
2013-01-22 04:15:00,33.4,13.2,30.10,NNE,22,0.0,-999.0,43,0.00,Cloudy,,0.00,Open2300\PHP-WU,2013-01-22 09:15:00,
2013-01-22 04:20:00,33.3,13.0,30.11,South,180,0.0,-999.0,43,0.00,Cloudy,,0.00,Open2300\PHP-WU,2013-01-22 09:20:00,
2013-01-22 04:27:00,33.1,12.9,30.11,NE,45,0.0,-999.0,43,0.00,Cloudy,,0.00,Open2300\PHP-WU,2013-01-22 09:27:00,
2013-01-22 04:32:00,33.1,12.4,30.12,NNE,22,0.0,-999.0,42,0.00,Cloudy,,0.00,Open2300\PHP-WU,2013-01-22 09:32:00,
2013-01-22 04:38:00,33.3,12.5,30.12,NE,45,0.0,-999.0,42,0.00,Cloudy,,0.00,Open2300\PHP-WU,2013-01-22 09:38:00,
2013-01-22 04:44:00,33.1,11.9,30.12,SSW,202,0.0,-999.0,41,0.00,Cloudy,,0.00,Open2300\PHP-WU,2013-01-22 09:44:00,
2013-01-22 04:50:00,32.7,12.1,30.12,SW,225,0.0,-999.0,42,0.00,Cloudy,,0.00,Open2300\PHP-WU,2013-01-22 09:50:00,
2013-01-22 04:57:00,32.5,11.9,30.12,NNW,337,0.0,-999.0,42,0.00,Cloudy,,0.00,Open2300\PHP-WU,2013-01-22 09:57:00,
2013-01-22 05:02:00,32.4,11.7,30.13,North,0,0.0,-999.0,42,0.00,Cloudy,,0.00,Open2300\PHP-WU,2013-01-22 10:02:00,
2013-01-22 05:09:00,32.2,11.6,30.13,North,0,0.0,-999.0,42,0.00,Cloudy,,0.00,Open2300\PHP-WU,2013-01-22 10:09:00,
2013-01-22 05:14:00,31.8,11.2,30.14,North,0,0.0,-999.0,42,0.00,Cloudy,,0.00,Open2300\PHP-WU,2013-01-22 10:14:00,
2013-01-22 05:20:00,31.8,10.7,30.14,North,0,0.0,-999.0,41,0.00,Cloudy,,0.00,Open2300\PHP-WU,2013-01-22 10:20:00,
2013-01-22 05:26:00,31.8,10.7,30.14,ENE,67,0.0,-999.0,41,0.00,Cloudy,,0.00,Open2300\PHP-WU,2013-01-22 10:26:00,
2013-01-22 05:32:00,31.6,10.6,30.15,North,0,0.0,-999.0,41,0.00,Cloudy,,0.00,Open2300\PHP-WU,2013-01-22 10:32:00,
2013-01-22 05:38:00,31.5,10.4,30.16,NNE,22,0.0,-999.0,41,0.00,Cloudy,,0.00,Open2300\PHP-WU,2013-01-22 10:38:00,
2013-01-22 05:44:00,31.1,10.1,30.16,NNE,22,0.0,-999.0,41,0.00,Cloudy,,0.00,Open2300\PHP-WU,2013-01-22 10:44:00,
2013-01-22 05:51:00,31.1,10.1,30.16,South,180,0.0,-999.0,41,0.00,Cloudy,,0.00,Open2300\PHP-WU,2013-01-22 10:51:00,
2013-01-22 05:56:00,30.9,9.9,30.17,NNW,337,0.0,-999.0,41,0.00,Cloudy,,0.00,Open2300\PHP-WU,2013-01-22 10:56:00,
2013-01-22 06:02:00,30.7,9.8,30.17,ENE,67,0.0,-999.0,41,0.00,Cloudy,,0.00,Open2300\PHP-WU,2013-01-22 11:02:00,
2013-01-22 06:08:00,30.4,9.9,30.18,SSW,202,0.0,-999.0,42,0.00,Cloudy,,0.00,Open2300\PHP-WU,2013-01-22 11:08:00,
2013-01-22 06:14:00,30.0,9.6,30.18,SSW,202,0.0,-999.0,42,0.00,Sunny,,0.00,Open2300\PHP-WU,2013-01-22 11:14:00,
2013-01-22 06:20:00,29.8,10.0,30.19,WNW,292,0.0,-999.0,43,0.00,Sunny,,0.00,Open2300\PHP-WU,2013-01-22 11:20:00,
2013-01-22 06:27:00,29.5,9.6,30.19,North,0,0.0,-999.0,43,0.00,Sunny,,0.00,Open2300\PHP-WU,2013-01-22 11:27:00,
2013-01-22 06:32:00,29.3,9.5,30.19,North,0,0.0,-999.0,43,0.00,Sunny,,0.00,Open2300\PHP-WU,2013-01-22 11:32:00,
2013-01-22 06:38:00,29.1,9.3,30.20,WNW,292,0.0,-999.0,43,0.00,Sunny,,0.00,Open2300\PHP-WU,2013-01-22 11:38:00,
2013-01-22 06:44:00,28.9,9.2,30.20,NE,45,0.0,-999.0,43,0.00,Sunny,,0.00,Open2300\PHP-WU,2013-01-22 11:44:00,
2013-01-22 06:50:00,28.9,9.7,30.20,North,0,0.0,-999.0,44,0.00,Sunny,,0.00,Open2300\PHP-WU,2013-01-22 11:50:00,
2013-01-22 06:56:00,28.8,9.5,30.20,North,0,0.0,-999.0,44,0.00,Sunny,,0.00,Open2300\PHP-WU,2013-01-22 11:56:00,
2013-01-22 07:02:00,28.6,9.3,30.21,NW,315,0.0,-999.0,44,0.00,Sunny,,0.00,Open2300\PHP-WU,2013-01-22 12:02:00,
2013-01-22 07:08:00,28.2,9.0,30.22,WNW,292,0.0,-999.0,44,0.00,Sunny,,0.00,Open2300\PHP-WU,2013-01-22 12:08:00,
2013-01-22 07:14:00,28.0,8.8,30.22,NNW,337,0.0,-999.0,44,0.00,Sunny,,0.00,Open2300\PHP-WU,2013-01-22 12:14:00,
2013-01-22 07:20:00,27.9,9.2,30.22,NNE,22,0.0,-999.0,45,0.00,Sunny,,0.00,Open2300\PHP-WU,2013-01-22 12:20:00,
2013-01-22 07:26:00,27.7,8.5,30.22,NE,45,0.0,-999.0,44,0.00,Sunny,,0.00,Open2300\PHP-WU,2013-01-22 12:26:00,
2013-01-22 07:32:00,28.0,8.8,30.23,NNE,22,0.0,-999.0,44,0.00,Sunny,,0.00,Open2300\PHP-WU,2013-01-22 12:32:00,
2013-01-22 07:38:00,27.7,8.5,30.23,North,0,0.0,-999.0,44,0.00,Sunny,,0.00,Open2300\PHP-WU,2013-01-22 12:38:00,
2013-01-22 07:44:00,28.0,8.8,30.23,NNE,22,0.0,-999.0,44,0.00,Sunny,,0.00,Open2300\PHP-WU,2013-01-22 12:44:00,
2013-01-22 07:50:00,28.0,8.8,30.24,North,0,0.0,-999.0,44,0.00,Sunny,,0.00,Open2300\PHP-WU,2013-01-22 12:50:00,
2013-01-22 07:57:00,28.2,8.5,30.23,North,0,0.0,-999.0,43,0.00,Sunny,,0.00,Open2300\PHP-WU,2013-01-22 12:57:00,
2013-01-22 08:02:00,28.2,8.5,30.24,North,0,0.0,-999.0,43,0.00,Sunny,,0.00,Open2300\PHP-WU,2013-01-22 13:02:00,
2013-01-22 08:08:00,28.2,8.5,30.24,NNW,337,0.0,-999.0,43,0.00,Sunny,,0.00,Open2300\PHP-WU,2013-01-22 13:08:00,
2013-01-22 08:14:00,28.2,8.5,30.24,NNE,22,0.0,-999.0,43,0.00,Sunny,,0.00,Open2300\PHP-WU,2013-01-22 13:14:00,
2013-01-22 08:20:00,28.6,8.8,30.25,NE,45,0.0,-999.0,43,0.00,Sunny,,0.00,Open2300\PHP-WU,2013-01-22 13:20:00,
2013-01-22 08:26:00,28.6,8.8,30.25,NNE,22,0.0,-999.0,43,0.00,Sunny,,0.00,Open2300\PHP-WU,2013-01-22 13:26:00,
2013-01-22 08:32:00,28.8,9.0,30.25,WNW,292,0.0,-999.0,43,0.00,Sunny,,0.00,Open2300\PHP-WU,2013-01-22 13:32:00,
2013-01-22 08:38:00,28.9,9.2,30.25,NW,315,0.0,-999.0,43,0.00,Sunny,,0.00,Open2300\PHP-WU,2013-01-22 13:38:00,
2013-01-22 08:44:00,29.1,8.8,30.25,NNE,22,0.0,-999.0,42,0.00,Sunny,,0.00,Open2300\PHP-WU,2013-01-22 13:44:00,
2013-01-22 08:50:00,29.5,8.6,30.25,East,90,0.0,-999.0,41,0.00,Sunny,,0.00,Open2300\PHP-WU,2013-01-22 13:50:00,
2013-01-22 08:56:00,29.7,8.8,30.25,NNW,337,8.3,-999.0,41,0.00,Sunny,,0.00,Open2300\PHP-WU,2013-01-22 13:56:00,
2013-01-22 09:02:00,29.8,8.5,30.26,WNW,292,0.0,-999.0,40,0.00,Sunny,,0.00,Open2300\PHP-WU,2013-01-22 14:02:00,
2013-01-22 09:08:00,30.9,8.8,30.27,North,0,0.0,-999.0,39,0.00,Sunny,,0.00,Open2300\PHP-WU,2013-01-22 14:08:00,
2013-01-22 09:14:00,33.6,11.2,30.27,NE,45,2.0,-999.0,39,0.00,Sunny,,0.00,Open2300\PHP-WU,2013-01-22 14:14:00,
2013-01-22 09:20:00,36.0,12.0,30.28,NE,45,2.7,-999.0,37,0.00,Sunny,,0.00,Open2300\PHP-WU,2013-01-22 14:20:00,
2013-01-22 09:26:00,37.2,11.9,30.28,North,0,0.0,-999.0,35,0.00,Sunny,,0.00,Open2300\PHP-WU,2013-01-22 14:26:00,
2013-01-22 09:32:00,37.6,11.5,30.28,NNW,337,0.0,-999.0,34,0.00,Sunny,,0.00,Open2300\PHP-WU,2013-01-22 14:32:00,
2013-01-22 09:38:00,37.6,10.9,30.29,North,0,2.7,-999.0,33,0.00,Sunny,,0.00,Open2300\PHP-WU,2013-01-22 14:38:00,
2013-01-22 09:44:00,37.0,9.8,30.29,West,270,0.0,-999.0,32,0.00,Sunny,,0.00,Open2300\PHP-WU,2013-01-22 14:44:00,
2013-01-22 09:50:00,37.0,10.4,30.29,North,0,0.0,-999.0,33,0.00,Sunny,,0.00,Open2300\PHP-WU,2013-01-22 14:50:00,
2013-01-22 09:56:00,37.0,11.0,30.29,East,90,0.0,-999.0,34,0.00,Sunny,,0.00,Open2300\PHP-WU,2013-01-22 14:56:00,
2013-01-22 10:02:00,37.0,10.4,30.29,NNE,22,0.0,-999.0,33,0.00,Sunny,,0.00,Open2300\PHP-WU,2013-01-22 15:02:00,
2013-01-22 10:08:00,37.2,10.6,30.30,WSW,247,0.0,-999.0,33,0.00,Sunny,,0.00,Open2300\PHP-WU,2013-01-22 15:08:00,
2013-01-22 10:14:00,37.4,10.1,30.30,NNE,22,0.0,-999.0,32,0.00,Sunny,,0.00,Open2300\PHP-WU,2013-01-22 15:14:00,
2013-01-22 10:20:00,37.0,9.8,30.30,East,90,0.0,-999.0,32,0.00,Sunny,,0.00,Open2300\PHP-WU,2013-01-22 15:20:00,
2013-01-22 10:26:00,37.2,9.9,30.30,ENE,67,0.0,-999.0,32,0.00,Sunny,,0.00,Open2300\PHP-WU,2013-01-22 15:26:00,
2013-01-22 10:32:00,36.9,8.3,30.30,NNE,22,0.0,-999.0,30,0.00,Sunny,,0.00,Open2300\PHP-WU,2013-01-22 15:32:00,
2013-01-22 10:38:00,36.5,8.6,30.30,North,0,0.0,-999.0,31,0.00,Sunny,,0.00,Open2300\PHP-WU,2013-01-22 15:38:00,
2013-01-22 10:44:00,36.3,8.5,30.30,NNW,337,0.0,-999.0,31,0.00,Sunny,,0.00,Open2300\PHP-WU,2013-01-22 15:44:00,
2013-01-22 10:50:00,36.3,7.8,30.30,North,0,1.1,-999.0,30,0.00,Sunny,,0.00,Open2300\PHP-WU,2013-01-22 15:50:00,
2013-01-22 10:56:00,36.3,8.5,30.30,North,0,0.0,-999.0,31,0.00,Sunny,,0.00,Open2300\PHP-WU,2013-01-22 15:56:00,
2013-01-22 11:02:00,37.0,9.1,30.30,SW,225,0.4,-999.0,31,0.00,Sunny,,0.00,Open2300\PHP-WU,2013-01-22 16:02:00,
2013-01-22 11:08:00,37.2,8.6,30.30,SE,135,0.0,-999.0,30,0.00,Sunny,,0.00,Open2300\PHP-WU,2013-01-22 16:08:00,
2013-01-22 11:14:00,37.2,8.6,30.29,WSW,247,0.0,-999.0,30,0.00,Sunny,,0.00,Open2300\PHP-WU,2013-01-22 16:14:00,
2013-01-22 11:20:00,37.4,9.4,30.29,NNW,337,0.0,-999.0,31,0.00,Sunny,,0.00,Open2300\PHP-WU,2013-01-22 16:20:00,
2013-01-22 11:27:00,37.8,9.1,30.29,SW,225,0.0,-999.0,30,0.00,Sunny,,0.00,Open2300\PHP-WU,2013-01-22 16:27:00,
2013-01-22 11:32:00,37.9,9.3,30.29,West,270,0.0,-999.0,30,0.00,Sunny,,0.00,Open2300\PHP-WU,2013-01-22 16:32:00,
2013-01-22 11:38:00,38.5,8.9,30.29,NE,45,0.0,-999.0,29,0.00,Sunny,,0.00,Open2300\PHP-WU,2013-01-22 16:38:00,
2013-01-22 11:44:00,38.3,8.7,30.29,NNW,337,1.3,-999.0,29,0.00,Sunny,,0.00,Open2300\PHP-WU,2013-01-22 16:44:00,
2013-01-22 11:50:00,38.3,8.7,30.29,ENE,67,0.0,-999.0,29,0.00,Sunny,,0.00,Open2300\PHP-WU,2013-01-22 16:50:00,
2013-01-22 11:56:00,38.3,8.7,30.28,NNW,337,0.0,-999.0,29,0.00,Sunny,,0.00,Open2300\PHP-WU,2013-01-22 16:56:00,
2013-01-22 12:02:00,38.3,7.8,30.28,SSE,157,0.0,-999.0,28,0.00,Sunny,,0.00,Open2300\PHP-WU,2013-01-22 17:02:00,
2013-01-22 12:08:00,38.3,7.8,30.27,SW,225,0.0,-999.0,28,0.00,Sunny,,0.00,Open2300\PHP-WU,2013-01-22 17:08:00,
2013-01-22 12:15:00,38.8,8.3,30.27,North,0,1.3,-999.0,28,0.00,Sunny,,0.00,Open2300\PHP-WU,2013-01-22 17:15:00,
2013-01-22 12:21:00,37.9,7.5,30.26,NNW,337,0.0,-999.0,28,0.00,Sunny,,0.00,Open2300\PHP-WU,2013-01-22 17:21:00,
2013-01-22 12:27:00,37.9,7.5,30.26,West,270,2.0,-999.0,28,0.00,Sunny,,0.00,Open2300\PHP-WU,2013-01-22 17:27:00,
2013-01-22 12:33:00,38.8,9.2,30.26,SW,225,0.0,-999.0,29,0.00,Sunny,,0.00,Open2300\PHP-WU,2013-01-22 17:33:00,
2013-01-22 12:39:00,39.0,8.4,30.26,North,0,0.0,-999.0,28,0.00,Sunny,,0.00,Open2300\PHP-WU,2013-01-22 17:39:00,
2013-01-22 12:45:00,39.4,9.7,30.25,NNW,337,0.0,-999.0,29,0.00,Sunny,,0.00,Open2300\PHP-WU,2013-01-22 17:45:00,
2013-01-22 12:51:00,39.9,10.1,30.25,West,270,2.7,-999.0,29,0.00,Sunny,,0.00,Open2300\PHP-WU,2013-01-22 17:51:00,
2013-01-22 12:57:00,40.5,10.6,30.25,NE,45,0.0,-999.0,29,0.00,Sunny,,0.00,Open2300\PHP-WU,2013-01-22 17:57:00,
2013-01-22 13:03:00,40.1,9.4,30.25,ENE,67,0.0,-999.0,28,0.00,Sunny,,0.00,Open2300\PHP-WU,2013-01-22 18:03:00,
2013-01-22 13:09:00,39.7,8.2,30.25,SW,225,0.0,-999.0,27,0.00,Sunny,,0.00,Open2300\PHP-WU,2013-01-22 18:09:00,
2013-01-22 13:15:00,39.7,9.1,30.25,SW,225,4.9,-999.0,28,0.00,Sunny,,0.00,Open2300\PHP-WU,2013-01-22 18:15:00,
2013-01-22 13:21:00,39.9,10.1,30.25,WSW,247,0.0,-999.0,29,0.00,Sunny,,0.00,Open2300\PHP-WU,2013-01-22 18:21:00,
2013-01-22 13:27:00,40.1,9.4,30.25,WSW,247,0.0,-999.0,28,0.00,Sunny,,0.00,Open2300\PHP-WU,2013-01-22 18:27:00,
2013-01-22 13:33:00,39.9,9.2,30.25,WSW,247,0.0,-999.0,28,0.00,Sunny,,0.00,Open2300\PHP-WU,2013-01-22 18:33:00,
2013-01-22 13:39:00,40.3,9.6,30.24,SE,135,2.2,-999.0,28,0.00,Sunny,,0.00,Open2300\PHP-WU,2013-01-22 18:39:00,
2013-01-22 13:45:00,40.1,9.4,30.25,SW,225,0.0,-999.0,28,0.00,Sunny,,0.00,Open2300\PHP-WU,2013-01-22 18:45:00,
2013-01-22 13:51:00,39.9,9.2,30.24,SW,225,0.0,-999.0,28,0.00,Sunny,,0.00,Open2300\PHP-WU,2013-01-22 18:51:00,
2013-01-22 13:57:00,39.9,8.3,30.24,WSW,247,0.7,-999.0,27,0.00,Sunny,,0.00,Open2300\PHP-WU,2013-01-22 18:57:00,
2013-01-22 14:03:00,39.4,7.9,30.24,WSW,247,0.0,-999.0,27,0.00,Sunny,,0.00,Open2300\PHP-WU,2013-01-22 19:03:00,
2013-01-22 14:09:00,39.4,8.8,30.24,NE,45,0.0,-999.0,28,0.00,Sunny,,0.00,Open2300\PHP-WU,2013-01-22 19:09:00,
2013-01-22 14:15:00,39.6,8.0,30.24,WSW,247,0.0,-999.0,27,0.00,Sunny,,0.00,Open2300\PHP-WU,2013-01-22 19:15:00,
2013-01-22 14:21:00,40.3,9.6,30.24,WSW,247,0.0,-999.0,28,0.00,Sunny,,0.00,Open2300\PHP-WU,2013-01-22 19:21:00,
2013-01-22 14:27:00,40.8,10.1,30.24,WSW,247,0.0,-999.0,28,0.00,Sunny,,0.00,Open2300\PHP-WU,2013-01-22 19:27:00,
2013-01-22 14:33:00,40.8,10.1,30.24,WSW,247,0.0,-999.0,28,0.00,Sunny,,0.00,Open2300\PHP-WU,2013-01-22 19:33:00,
2013-01-22 14:39:00,41.0,10.2,30.24,WSW,247,2.0,-999.0,28,0.00,Sunny,,0.00,Open2300\PHP-WU,2013-01-22 19:39:00,
2013-01-22 14:45:00,41.5,10.7,30.24,WSW,247,0.0,-999.0,28,0.00,Sunny,,0.00,Open2300\PHP-WU,2013-01-22 19:45:00,
2013-01-22 14:51:00,41.2,8.6,30.25,WSW,247,0.0,-999.0,26,0.00,Sunny,,0.00,Open2300\PHP-WU,2013-01-22 19:51:00,
2013-01-22 14:57:00,40.8,8.3,30.24,WSW,247,0.0,-999.0,26,0.00,Sunny,,0.00,Open2300\PHP-WU,2013-01-22 19:57:00,
2013-01-22 15:03:00,40.8,9.2,30.24,WSW,247,0.0,-999.0,27,0.00,Sunny,,0.00,Open2300\PHP-WU,2013-01-22 20:03:00,
2013-01-22 15:09:00,40.8,8.3,30.24,WSW,247,0.0,-999.0,26,0.00,Sunny,,0.00,Open2300\PHP-WU,2013-01-22 20:09:00,
2013-01-22 15:15:00,40.8,9.2,30.25,WSW,247,0.0,-999.0,27,0.00,Sunny,,0.00,Open2300\PHP-WU,2013-01-22 20:15:00,
2013-01-22 15:21:00,40.6,7.2,30.25,WSW,247,0.0,-999.0,25,0.00,Sunny,,0.00,Open2300\PHP-WU,2013-01-22 20:21:00,
2013-01-22 15:27:00,40.1,7.6,30.24,WSW,247,0.0,-999.0,26,0.00,Sunny,,0.00,Open2300\PHP-WU,2013-01-22 20:27:00,
2013-01-22 15:33:00,40.5,8.8,30.25,WSW,247,0.0,-999.0,27,0.00,Sunny,,0.00,Open2300\PHP-WU,2013-01-22 20:33:00,
2013-01-22 15:39:00,40.8,9.2,30.25,WSW,247,1.1,-999.0,27,0.00,Sunny,,0.00,Open2300\PHP-WU,2013-01-22 20:39:00,
2013-01-22 15:45:00,40.5,7.9,30.26,WSW,247,5.1,-999.0,26,0.00,Sunny,,0.00,Open2300\PHP-WU,2013-01-22 20:45:00,
2013-01-22 15:51:00,40.1,7.6,30.25,WSW,247,0.0,-999.0,26,0.00,Sunny,,0.00,Open2300\PHP-WU,2013-01-22 20:51:00,
2013-01-22 15:57:00,39.9,7.4,30.26,WSW,247,0.0,-999.0,26,0.00,Sunny,,0.00,Open2300\PHP-WU,2013-01-22 20:57:00,
2013-01-22 16:03:00,39.7,7.3,30.26,WSW,247,0.0,-999.0,26,0.00,Sunny,,0.00,Open2300\PHP-WU,2013-01-22 21:03:00,
2013-01-22 16:09:00,39.6,8.0,30.25,WSW,247,0.0,-999.0,27,0.00,Sunny,,0.00,Open2300\PHP-WU,2013-01-22 21:09:00,
2013-01-22 16:15:00,39.7,8.2,30.25,WSW,247,0.0,-999.0,27,0.00,Sunny,,0.00,Open2300\PHP-WU,2013-01-22 21:15:00,
2013-01-22 16:21:00,39.6,7.1,30.25,WSW,247,0.0,-999.0,26,0.00,Sunny,,0.00,Open2300\PHP-WU,2013-01-22 21:21:00,
2013-01-22 16:26:00,39.0,6.6,30.25,WSW,247,0.0,-999.0,26,0.00,Sunny,,0.00,Open2300\PHP-WU,2013-01-22 21:26:00,
2013-01-22 16:33:00,38.8,7.4,30.26,WSW,247,0.0,-999.0,27,0.00,Sunny,,0.00,Open2300\PHP-WU,2013-01-22 21:33:00,
2013-01-22 16:39:00,38.8,7.4,30.25,WSW,247,0.0,-999.0,27,0.00,Sunny,,0.00,Open2300\PHP-WU,2013-01-22 21:39:00,
2013-01-22 16:44:00,38.7,6.3,30.26,WSW,247,0.0,-999.0,26,0.00,Sunny,,0.00,Open2300\PHP-WU,2013-01-22 21:44:00,
2013-01-22 16:51:00,38.3,6.9,30.26,WSW,247,0.0,-999.0,27,0.00,Sunny,,0.00,Open2300\PHP-WU,2013-01-22 21:51:00,
2013-01-22 16:56:00,37.8,6.4,30.26,North,0,0.0,-999.0,27,0.00,Sunny,,0.00,Open2300\PHP-WU,2013-01-22 21:56:00,
2013-01-22 17:03:00,37.2,6.0,30.26,SW,225,0.0,-999.0,27,0.00,Sunny,,0.00,Open2300\PHP-WU,2013-01-22 22:03:00,
2013-01-22 17:08:00,37.0,6.9,30.26,WSW,247,0.0,-999.0,28,0.00,Sunny,,0.00,Open2300\PHP-WU,2013-01-22 22:08:00,
2013-01-22 17:14:00,36.5,6.2,30.27,WNW,292,0.0,-999.0,28,0.00,Sunny,,0.00,Open2300\PHP-WU,2013-01-22 22:14:00,
2013-01-22 17:20:00,36.0,5.7,30.26,WSW,247,0.0,-999.0,28,0.00,Sunny,,0.00,Open2300\PHP-WU,2013-01-22 22:20:00,
2013-01-22 17:26:00,35.2,5.1,30.26,North,0,0.0,-999.0,28,0.00,Sunny,,0.00,Open2300\PHP-WU,2013-01-22 22:26:00,
2013-01-22 17:32:00,34.7,5.6,30.26,North,0,0.0,-999.0,29,0.00,Sunny,,0.00,Open2300\PHP-WU,2013-01-22 22:32:00,
2013-01-22 17:38:00,34.3,5.3,30.26,North,0,0.0,-999.0,29,0.00,Sunny,,0.00,Open2300\PHP-WU,2013-01-22 22:38:00,
2013-01-22 17:44:00,33.8,4.8,30.26,North,0,0.0,-999.0,29,0.00,Sunny,,0.00,Open2300\PHP-WU,2013-01-22 22:44:00,
2013-01-22 17:50:00,33.4,4.5,30.26,North,0,0.0,-999.0,29,0.00,Sunny,,0.00,Open2300\PHP-WU,2013-01-22 22:50:00,
2013-01-22 17:56:00,32.7,4.7,30.26,North,0,0.0,-999.0,30,0.00,Sunny,,0.00,Open2300\PHP-WU,2013-01-22 22:56:00,
2013-01-22 18:02:00,32.4,4.4,30.27,North,0,0.0,-999.0,30,0.00,Sunny,,0.00,Open2300\PHP-WU,2013-01-22 23:02:00,
2013-01-22 18:08:00,31.8,4.6,30.27,North,0,0.0,-999.0,31,0.00,Sunny,,0.00,Open2300\PHP-WU,2013-01-22 23:08:00,
2013-01-22 18:14:00,31.5,4.9,30.27,North,0,0.0,-999.0,32,0.00,Sunny,,0.00,Open2300\PHP-WU,2013-01-22 23:14:00,
2013-01-22 18:20:00,30.9,4.4,30.28,North,0,0.0,-999.0,32,0.00,Sunny,,0.00,Open2300\PHP-WU,2013-01-22 23:20:00,
2013-01-22 18:26:00,30.2,4.4,30.28,North,0,0.0,-999.0,33,0.00,Sunny,,0.00,Open2300\PHP-WU,2013-01-22 23:26:00,
2013-01-22 18:32:00,29.8,4.7,30.28,North,0,0.0,-999.0,34,0.00,Sunny,,0.00,Open2300\PHP-WU,2013-01-22 23:32:00,
2013-01-22 18:38:00,29.3,4.8,30.29,North,0,0.0,-999.0,35,0.00,Sunny,,0.00,Open2300\PHP-WU,2013-01-22 23:38:00,
2013-01-22 18:44:00,28.9,5.1,30.29,North,0,0.0,-999.0,36,0.00,Sunny,,0.00,Open2300\PHP-WU,2013-01-22 23:44:00,
2013-01-22 18:50:00,28.6,5.4,30.29,North,0,0.0,-999.0,37,0.00,Sunny,,0.00,Open2300\PHP-WU,2013-01-22 23:50:00,
2013-01-22 18:57:00,28.0,4.9,30.29,North,0,0.0,-999.0,37,0.00,Sunny,,0.00,Open2300\PHP-WU,2013-01-22 23:57:00,
2013-01-22 19:02:00,27.7,5.3,30.29,North,0,0.0,-999.0,38,0.00,Sunny,,0.00,Open2300\PHP-WU,2013-01-23 00:02:00,
2013-01-22 19:08:00,27.3,5.6,30.29,North,0,0.0,-999.0,39,0.00,Sunny,,0.00,Open2300\PHP-WU,2013-01-23 00:08:00,
2013-01-22 19:14:00,27.1,5.4,30.29,North,0,0.0,-999.0,39,0.00,Sunny,,0.00,Open2300\PHP-WU,2013-01-23 00:14:00,
2013-01-22 19:20:00,26.8,5.7,30.29,North,0,0.0,-999.0,40,0.00,Sunny,,0.00,Open2300\PHP-WU,2013-01-23 00:20:00,
2013-01-22 19:26:00,26.4,5.9,30.29,North,0,0.0,-999.0,41,0.00,Sunny,,0.00,Open2300\PHP-WU,2013-01-23 00:26:00,
2013-01-22 19:33:00,26.2,5.7,30.30,North,0,0.0,-999.0,41,0.00,Sunny,,0.00,Open2300\PHP-WU,2013-01-23 00:33:00,
2013-01-22 19:38:00,26.1,6.0,30.29,North,0,0.0,-999.0,42,0.00,Sunny,,0.00,Open2300\PHP-WU,2013-01-23 00:38:00,
2013-01-22 19:44:00,25.9,6.4,30.29,North,0,0.0,-999.0,43,0.00,Sunny,,0.00,Open2300\PHP-WU,2013-01-23 00:44:00,
2013-01-22 19:50:00,25.5,6.0,30.29,North,0,0.0,-999.0,43,0.00,Sunny,,0.00,Open2300\PHP-WU,2013-01-23 00:50:00,
2013-01-22 19:57:00,25.5,6.5,30.30,North,0,0.0,-999.0,44,0.00,Sunny,,0.00,Open2300\PHP-WU,2013-01-23 00:57:00,
2013-01-22 20:02:00,25.3,6.8,30.30,North,0,0.0,-999.0,45,0.00,Sunny,,0.00,Open2300\PHP-WU,2013-01-23 01:02:00,
2013-01-22 20:08:00,25.5,6.5,30.30,North,0,0.0,-999.0,44,0.00,Sunny,,0.00,Open2300\PHP-WU,2013-01-23 01:08:00,
2013-01-22 20:14:00,26.1,6.5,30.29,NNW,337,0.0,-999.0,43,0.00,Sunny,,0.00,Open2300\PHP-WU,2013-01-23 01:14:00,
2013-01-22 20:20:00,26.4,6.4,30.30,NNW,337,0.0,-999.0,42,0.00,Sunny,,0.00,Open2300\PHP-WU,2013-01-23 01:20:00,
2013-01-22 20:26:00,26.8,6.2,30.31,NNW,337,0.0,-999.0,41,0.00,Sunny,,0.00,Open2300\PHP-WU,2013-01-23 01:26:00,
2013-01-22 20:32:00,26.6,6.0,30.31,NNW,337,0.0,-999.0,41,0.00,Sunny,,0.00,Open2300\PHP-WU,2013-01-23 01:32:00,
2013-01-22 20:38:00,26.6,5.5,30.31,NNW,337,0.0,-999.0,40,0.00,Sunny,,0.00,Open2300\PHP-WU,2013-01-23 01:38:00,
2013-01-22 20:44:00,26.4,5.4,30.31,NNW,337,0.0,-999.0,40,0.00,Sunny,,0.00,Open2300\PHP-WU,2013-01-23 01:44:00,
2013-01-22 20:50:00,26.2,5.7,30.31,NNW,337,0.0,-999.0,41,0.00,Sunny,,0.00,Open2300\PHP-WU,2013-01-23 01:50:00,
2013-01-22 20:56:00,26.2,5.7,30.31,NNW,337,0.0,-999.0,41,0.00,Sunny,,0.00,Open2300\PHP-WU,2013-01-23 01:56:00,
2013-01-22 21:02:00,25.7,5.2,30.31,NNW,337,0.0,-999.0,41,0.00,Sunny,,0.00,Open2300\PHP-WU,2013-01-23 02:02:00,
2013-01-22 21:08:00,25.5,5.1,30.31,NNW,337,0.0,-999.0,41,0.00,Sunny,,0.00,Open2300\PHP-WU,2013-01-23 02:08:00,
2013-01-22 21:14:00,25.3,4.9,30.30,NNW,337,0.0,-999.0,41,0.00,Sunny,,0.00,Open2300\PHP-WU,2013-01-23 02:14:00,
2013-01-22 21:20:00,25.2,5.2,30.31,NNW,337,0.0,-999.0,42,0.00,Sunny,,0.00,Open2300\PHP-WU,2013-01-23 02:20:00,
2013-01-22 21:27:00,24.8,4.9,30.32,NNW,337,0.0,-999.0,42,0.00,Sunny,,0.00,Open2300\PHP-WU,2013-01-23 02:27:00,
2013-01-22 21:32:00,24.4,5.1,30.31,NNW,337,0.0,-999.0,43,0.00,Sunny,,0.00,Open2300\PHP-WU,2013-01-23 02:32:00,
2013-01-22 21:38:00,24.6,4.7,30.31,North,0,0.0,-999.0,42,0.00,Sunny,,0.00,Open2300\PHP-WU,2013-01-23 02:38:00,
2013-01-22 21:44:00,24.6,4.7,30.32,North,0,0.0,-999.0,42,0.00,Sunny,,0.00,Open2300\PHP-WU,2013-01-23 02:44:00,
2013-01-22 21:50:00,24.6,4.7,30.33,North,0,0.0,-999.0,42,0.00,Sunny,,0.00,Open2300\PHP-WU,2013-01-23 02:50:00,
2013-01-22 21:56:00,24.6,4.7,30.33,North,0,0.0,-999.0,42,0.00,Sunny,,0.00,Open2300\PHP-WU,2013-01-23 02:56:00,
2013-01-22 22:02:00,24.6,4.7,30.33,North,0,0.0,-999.0,42,0.00,Sunny,,0.00,Open2300\PHP-WU,2013-01-23 03:02:00,
2013-01-22 22:08:00,25.0,4.6,30.33,North,0,0.0,-999.0,41,0.00,Sunny,,0.00,Open2300\PHP-WU,2013-01-23 03:08:00,
2013-01-22 22:14:00,25.0,4.6,30.33,North,0,0.0,-999.0,41,0.00,Sunny,,0.00,Open2300\PHP-WU,2013-01-23 03:14:00,
2013-01-22 22:20:00,24.6,4.2,30.34,North,0,0.0,-999.0,41,0.00,Sunny,,0.00,Open2300\PHP-WU,2013-01-23 03:20:00,
2013-01-22 22:26:00,24.4,4.6,30.34,North,0,0.0,-999.0,42,0.00,Sunny,,0.00,Open2300\PHP-WU,2013-01-23 03:26:00,
2013-01-22 22:32:00,24.1,4.2,30.35,North,0,0.0,-999.0,42,0.00,Sunny,,0.00,Open2300\PHP-WU,2013-01-23 03:32:00,
2013-01-22 22:38:00,24.1,4.2,30.35,North,0,0.0,-999.0,42,0.00,Sunny,,0.00,Open2300\PHP-WU,2013-01-23 03:38:00,
2013-01-22 22:44:00,24.4,4.1,30.35,NNW,337,0.0,-999.0,41,0.00,Sunny,,0.00,Open2300\PHP-WU,2013-01-23 03:44:00,
2013-01-22 22:50:00,24.6,4.2,30.35,North,0,0.0,-999.0,41,0.00,Sunny,,0.00,Open2300\PHP-WU,2013-01-23 03:50:00,
2013-01-22 22:56:00,24.8,3.9,30.35,NNW,337,0.0,-999.0,40,0.00,Sunny,,0.00,Open2300\PHP-WU,2013-01-23 03:56:00,
2013-01-22 23:02:00,24.6,3.8,30.35,NNW,337,0.0,-999.0,40,0.00,Sunny,,0.00,Open2300\PHP-WU,2013-01-23 04:02:00,
2013-01-22 23:08:00,24.1,3.3,30.35,NNW,337,0.0,-999.0,40,0.00,Sunny,,0.00,Open2300\PHP-WU,2013-01-23 04:08:00,
2013-01-22 23:14:00,23.9,3.6,30.35,NNW,337,0.0,-999.0,41,0.00,Sunny,,0.00,Open2300\PHP-WU,2013-01-23 04:14:00,
2013-01-22 23:20:00,23.4,4.1,30.35,NNW,337,0.0,-999.0,43,0.00,Sunny,,0.00,Open2300\PHP-WU,2013-01-23 04:20:00,
2013-01-22 23:26:00,23.0,3.8,30.35,NNW,337,0.0,-999.0,43,0.00,Sunny,,0.00,Open2300\PHP-WU,2013-01-23 04:26:00,
2013-01-22 23:32:00,22.6,3.9,30.35,NNW,337,0.0,-999.0,44,0.00,Sunny,,0.00,Open2300\PHP-WU,2013-01-23 04:32:00,
2013-01-22 23:38:00,22.3,4.0,30.34,NNW,337,0.0,-999.0,45,0.00,Sunny,,0.00,Open2300\PHP-WU,2013-01-23 04:38:00,
2013-01-22 23:44:00,21.9,4.2,30.34,NNW,337,0.0,-999.0,46,0.00,Sunny,,0.00,Open2300\PHP-WU,2013-01-23 04:44:00,
2013-01-22 23:50:00,21.7,4.5,30.34,NNW,337,0.0,-999.0,47,0.00,Sunny,,0.00,Open2300\PHP-WU,2013-01-23 04:50:00,
2013-01-22 23:56:00,21.6,4.3,30.34,NNW,337,0.0,-999.0,47,0.00,Sunny,,0.00,Open2300\PHP-WU,2013-01-23 04:56:00,